Alturas, CA

5:04 AM PDT on May 25, 2017 (GMT -0700)
Alturas Municipal

Weather History for KAAT - October, 2012

Change the Weather History Date:

Sunday, October 14, 2012

  Actual Average Record
Temperature  
Mean Temperature 52 °F 48 °F  
Max Temperature 76 °F 66 °F 88 °F (2015)
Min Temperature 28 °F 29 °F 13 °F (1960)
Degree Days  
Heating Degree Days 13 18  
Month to date heating degree days 167 217  
Since 1 July heating degree days 323 594  
Cooling Degree Days 0 0  
Month to date cooling degree days 0 0  
Year to date cooling degree days 224 156  
Growing Degree Days 2 (Base 50)    
Moisture  
Dew Point 33 °F    
Average Humidity 57    
Maximum Humidity 92    
Minimum Humidity 21    
Precipitation  
Precipitation 0.00 in 0.04 in 0.94 in (1962)
Month to date precipitation 0.00 0.32  
Year to date precipitation 5.96 9.98  
Sea Level Pressure  
Sea Level Pressure 30.19 in    
Wind  
Wind Speed 4 mph (WSW)    
Max Wind Speed 17 mph    
Max Gust Speed 24 mph    
Visibility 10 miles    
Events      
T = Trace of Precipitation, MM = Missing Value Source: NWS Daily Summary

Daily Weather History Graph

Daily Weather History Graph

Search for Another Location

Airport or City:

Trip Planner

Search our weather history database for the weather conditions in past years. The results will help you decide how hot, cold, wet, or windy it might be!

Date:

Astronomy

Oct. 14, 2012 Rise Set
Actual Time 7:13 AM PDT 6:21 PM PDT
Civil Twilight 6:45 AM PDT 6:49 PM PDT
Nautical Twilight 6:13 AM PDT 7:21 PM PDT
Astronomical Twilight 5:41 AM PDT 7:53 PM PDT
Moon 6:18 AM PDT (10/14) 5:44 PM PDT (10/14)
Length of Visible Light 12h 03m
Length of Day
11h 08m
Waning Crescent, 1% of the Moon is Illuminated
Oct 14
Waning Crescent
Oct 15
New
Oct 21
First Quarter
Oct 29
Full
Nov 6
Last Quarter

Hourly Weather History & Observations

Time (PDT) Temp. Dew Point Humidity Pressure Visibility Wind Dir Wind Speed Gust Speed Precip Events Conditions
12:55 AM 36.0 °F 30.0 °F 79% 30.31 in 10.0 mi Calm Calm - N/A   Clear
1:55 AM 36.0 °F 32.0 °F 86% 30.29 in 9.0 mi Calm Calm - N/A   Clear
2:55 AM 35.1 °F 30.0 °F 82% 30.27 in 10.0 mi Calm Calm - N/A   Clear
3:55 AM 30.0 °F 26.1 °F 85% 30.28 in 10.0 mi Calm Calm - N/A   Clear
4:55 AM 30.0 °F 27.0 °F 88% 30.27 in 10.0 mi Calm Calm - N/A   Clear
5:55 AM 28.9 °F 25.0 °F 85% 30.27 in 10.0 mi Calm Calm - N/A   Clear
6:55 AM 30.9 °F 28.9 °F 92% 30.29 in 10.0 mi Calm Calm - N/A   Clear
7:55 AM 30.0 °F 27.0 °F 88% 30.29 in 10.0 mi Calm Calm - N/A   Clear
8:55 AM 46.0 °F 34.0 °F 63% 30.27 in 10.0 mi Calm Calm - N/A   Clear
9:55 AM 55.0 °F 36.0 °F 49% 30.25 in 10.0 mi Calm Calm - N/A   Clear
10:55 AM 63.0 °F 37.9 °F 40% 30.21 in 10.0 mi Calm Calm - N/A   Clear
11:55 AM 71.1 °F 37.0 °F 29% 30.18 in 10.0 mi SW 4.6 mph - N/A   Clear
12:55 PM 73.0 °F 35.1 °F 25% 30.17 in 10.0 mi SW 9.2 mph - N/A   Clear
1:55 PM 75.9 °F 33.1 °F 21% 30.13 in 10.0 mi West 10.4 mph - N/A   Clear
2:55 PM 75.0 °F 34.0 °F 22% 30.12 in 10.0 mi West 9.2 mph - N/A   Clear
3:55 PM 73.9 °F 37.0 °F 26% 30.12 in 10.0 mi West 15.0 mph - N/A   Clear
4:55 PM 70.0 °F 37.0 °F 30% 30.11 in 10.0 mi West 12.7 mph - N/A   Clear
5:55 PM 66.9 °F 37.0 °F 33% 30.12 in 10.0 mi West 12.7 mph - N/A   Clear
6:55 PM 64.0 °F 35.1 °F 34% 30.13 in 10.0 mi West 13.8 mph - N/A   Clear
7:55 PM 61.0 °F 37.0 °F 41% 30.16 in 10.0 mi South 3.5 mph - N/A   Clear
8:55 PM 57.0 °F 35.1 °F 44% 30.14 in 10.0 mi WSW 6.9 mph - N/A   Clear
9:55 PM 54.0 °F 36.0 °F 51% 30.10 in 10.0 mi Calm Calm - N/A   Clear
10:55 PM 51.1 °F 34.0 °F 52% 30.10 in 10.0 mi NW 4.6 mph - N/A   Clear
11:55 PM 50.0 °F 36.0 °F 59% 30.09 in 10.0 mi Calm Calm - N/A   Clear